When you browse on this site, cookies collect data to enhance your experience and personalize the content and advertising you see.
Visit our Privacy Policy to learn more. By continuing to use the site, you agree to this use of cookies and data.
  • Em Portugal
  • Lista de países
  • Para 7 dias
  • Temperatura da água
  • Mapas de satélite
  • Mapa do tempo
  • Widgets de tempo
  • user-avatar
    Iniciar Sessão

    Previsão horária em Stany

    Hoje, 19 Dezembro, Quarta-feira

    Tempo Temperatura Precipitação Vento Pressão Humidade
    00:00 -3°C° 0 mm 1 m/s 757 mmHg 93%
    01:00 -5°C° 0 mm 2 m/s 757 mmHg 94%
    02:00 -5°C° 0 mm 2 m/s 757 mmHg 94%
    03:00 -6°C° 0 mm 2 m/s 756 mmHg 94%
    04:00 -6°C° 0 mm 2 m/s 756 mmHg 94%
    05:00 -6°C° 0 mm 2 m/s 756 mmHg 94%
    06:00 -6°C° 0 mm 2 m/s 756 mmHg 93%
    07:00 -7°C° 0 mm 2 m/s 756 mmHg 93%
    08:00 -7°C° 0 mm 3 m/s 756 mmHg 91%
    09:00 -7°C° 0 mm 3 m/s 756 mmHg 88%
    10:00 -7°C° 0 mm 4 m/s 756 mmHg 86%
    11:00 -7°C° 0 mm 4 m/s 755 mmHg 85%
    12:00 -5°C° 0 mm 4 m/s 755 mmHg 84%
    13:00 -4°C° 0 mm 4 m/s 755 mmHg 83%
    14:00 -5°C° 0 mm 4 m/s 754 mmHg 85%
    15:00 -7°C° 0 mm 4 m/s 754 mmHg 87%
    16:00 -7°C° 0 mm 4 m/s 754 mmHg 90%
    17:00 -8°C° 0 mm 4 m/s 754 mmHg 90%
    18:00 -8°C° 0 mm 4 m/s 754 mmHg 90%
    19:00 -8°C° 0 mm 4 m/s 753 mmHg 91%
    20:00 -8°C° 0 mm 4 m/s 753 mmHg 90%
    21:00 -8°C° 0 mm 4 m/s 753 mmHg 90%
    22:00 -8°C° 0 mm 4 m/s 753 mmHg 89%
    23:00 -8°C° 0 mm 4 m/s 753 mmHg 88%

    Amanhã, 20 Dezembro, Quinta-feira

    Tempo Temperatura Precipitação Vento Pressão Humidade
    00:00 -8°C° 0 mm 4 m/s 753 mmHg 87%
    01:00 -8°C° 0 mm 4 m/s 753 mmHg 86%
    02:00 -8°C° 0 mm 4 m/s 752 mmHg 85%
    03:00 -7°C° 0 mm 4 m/s 752 mmHg 84%
    04:00 -7°C° 0 mm 4 m/s 752 mmHg 83%
    05:00 -7°C° 0 mm 4 m/s 752 mmHg 82%
    06:00 -7°C° 0 mm 4 m/s 752 mmHg 82%
    07:00 -5°C° 0 mm 3 m/s 751 mmHg 81%
    08:00 -5°C° 0 mm 4 m/s 751 mmHg 80%
    09:00 -4°C° 0 mm 4 m/s 751 mmHg 79%
    10:00 -3°C° 0 mm 4 m/s 751 mmHg 77%
    11:00 -3°C° 0 mm 4 m/s 751 mmHg 78%
    12:00 -1°C° 0 mm 3 m/s 751 mmHg 78%
    13:00 -1°C° 0 mm 3 m/s 751 mmHg 78%
    14:00 -1°C° 0.1 mm 3 m/s 751 mmHg 82%
    15:00 -2°C° 0.1 mm 3 m/s 750 mmHg 85%
    16:00 -2°C° 0.1 mm 3 m/s 750 mmHg 89%
    17:00 -2°C° 0.3 mm 3 m/s 750 mmHg 90%
    18:00 -2°C° 0.3 mm 3 m/s 750 mmHg 92%
    19:00 -2°C° 0.3 mm 3 m/s 750 mmHg 93%
    20:00 -2°C° 0.2 mm 3 m/s 750 mmHg 93%
    21:00 -2°C° 0.2 mm 3 m/s 750 mmHg 93%
    22:00 -3°C° 0.2 mm 4 m/s 750 mmHg 92%
    23:00 -3°C° 0.2 mm 4 m/s 750 mmHg 91%

    Depois de amanhã, 21 Dezembro, Sexta-feira

    Tempo Temperatura Precipitação Vento Pressão Humidade
    00:00 -2°C° 0.2 mm 4 m/s 750 mmHg 91%
    01:00 -2°C° 0.2 mm 4 m/s 751 mmHg 90%
    02:00 -2°C° 0.1 mm 4 m/s 750 mmHg 90%
    03:00 -2°C° 0.1 mm 4 m/s 750 mmHg 90%
    04:00 -2°C° 0.1 mm 4 m/s 750 mmHg 90%
    05:00 -2°C° 0 mm 4 m/s 750 mmHg 90%
    06:00 -2°C° 0 mm 4 m/s 750 mmHg 90%
    07:00 -3°C° 0 mm 4 m/s 750 mmHg 90%
    08:00 -2°C° 0 mm 4 m/s 750 mmHg 89%
    09:00 -2°C° 0 mm 4 m/s 750 mmHg 88%
    10:00 -1°C° 0 mm 4 m/s 750 mmHg 87%
    11:00 -1°C° 0 mm 4 m/s 749 mmHg 87%
    12:00 -1°C° 0 mm 4 m/s 749 mmHg 88%
    13:00 0°C° 0 mm 4 m/s 749 mmHg 88%
    14:00 -1°C° 0 mm 4 m/s 748 mmHg 88%
    15:00 -1°C° 0 mm 4 m/s 748 mmHg 88%
    16:00 -1°C° 0 mm 4 m/s 748 mmHg 88%
    17:00 -1°C° 0.1 mm 5 m/s 747 mmHg 88%
    18:00 -1°C° 0.1 mm 5 m/s 747 mmHg 88%
    19:00 -1°C° 0.1 mm 5 m/s 746 mmHg 88%
    20:00 -1°C° 0.4 mm 5 m/s 745 mmHg 87%
    21:00 -2°C° 0.4 mm 6 m/s 745 mmHg 87%
    22:00 -2°C° 0.4 mm 6 m/s 744 mmHg 87%
    23:00 -1°C° 0.6 mm 6 m/s 743 mmHg 88%

    22 Dezembro, Sábado

    Tempo Temperatura Precipitação Vento Pressão Humidade
    00:00 -1°C° 0.6 mm 6 m/s 743 mmHg 89%
    01:00 -1°C° 0.6 mm 6 m/s 742 mmHg 90%
    02:00 -1°C° 0.4 mm 6 m/s 742 mmHg 90%
    03:00 -1°C° 0.4 mm 6 m/s 741 mmHg 90%
    04:00 +1°C° 0.4 mm 6 m/s 741 mmHg 91%
    05:00 +1°C° 0.1 mm 6 m/s 741 mmHg 92%
    06:00 +1°C° 0.1 mm 6 m/s 741 mmHg 93%
    07:00 +1°C° 0.1 mm 6 m/s 741 mmHg 93%
    08:00 +2°C° 0.1 mm 6 m/s 742 mmHg 93%
    09:00 +2°C° 0.1 mm 6 m/s 742 mmHg 93%
    10:00 +2°C° 0.1 mm 6 m/s 743 mmHg 92%
    11:00 +2°C° 0 mm 5 m/s 742 mmHg 92%
    12:00 +2°C° 0 mm 5 m/s 742 mmHg 92%
    13:00 +2°C° 0 mm 5 m/s 742 mmHg 91%
    14:00 +3°C° 0 mm 4 m/s 742 mmHg 91%
    15:00 +3°C° 0 mm 4 m/s 742 mmHg 91%
    16:00 +1°C° 0 mm 4 m/s 741 mmHg 91%
    17:00 +1°C° 0.3 mm 5 m/s 741 mmHg 91%
    18:00 +2°C° 0.3 mm 5 m/s 740 mmHg 91%
    19:00 +2°C° 0.3 mm 6 m/s 740 mmHg 90%
    20:00 +2°C° 0.2 mm 7 m/s 740 mmHg 89%
    21:00 +3°C° 0.2 mm 7 m/s 739 mmHg 88%
    22:00 +2°C° 0.2 mm 8 m/s 739 mmHg 86%
    23:00 +2°C° 0.1 mm 8 m/s 740 mmHg 86%

    23 Dezembro, Domingo

    Tempo Temperatura Precipitação Vento Pressão Humidade
    00:00 +3°C° 0.1 mm 7 m/s 740 mmHg 86%
    01:00 +3°C° 0.1 mm 7 m/s 741 mmHg 86%
    02:00 +3°C° 0 mm 7 m/s 741 mmHg 86%
    03:00 +2°C° 0 mm 7 m/s 741 mmHg 87%
    04:00 +2°C° 0 mm 7 m/s 742 mmHg 87%
    05:00 +2°C° 0 mm 7 m/s 742 mmHg 87%
    06:00 +2°C° 0 mm 7 m/s 742 mmHg 87%
    07:00 +2°C° 0 mm 7 m/s 743 mmHg 87%
    08:00 +2°C° 0 mm 7 m/s 743 mmHg 85%
    09:00 +3°C° 0 mm 7 m/s 743 mmHg 83%
    10:00 +2°C° 0 mm 8 m/s 744 mmHg 82%
    11:00 +3°C° 0.1 mm 7 m/s 744 mmHg 82%
    12:00 +3°C° 0.1 mm 7 m/s 744 mmHg 82%
    13:00 +3°C° 0.1 mm 7 m/s 744 mmHg 83%
    14:00 +3°C° 0.1 mm 7 m/s 744 mmHg 83%
    15:00 +3°C° 0.1 mm 6 m/s 744 mmHg 83%
    16:00 +3°C° 0.1 mm 6 m/s 745 mmHg 84%
    17:00 +2°C° 0.1 mm 6 m/s 745 mmHg 84%
    18:00 +2°C° 0.1 mm 6 m/s 745 mmHg 85%
    19:00 +2°C° 0.1 mm 6 m/s 745 mmHg 85%
    20:00 +2°C° 0.1 mm 6 m/s 745 mmHg 85%
    21:00 +2°C° 0.1 mm 7 m/s 746 mmHg 85%
    22:00 +2°C° 0.1 mm 7 m/s 746 mmHg 85%
    23:00 +2°C° 0.1 mm 6 m/s 746 mmHg 85%

    24 Dezembro, Segunda-feira

    Tempo Temperatura Precipitação Vento Pressão Humidade
    00:00 +2°C° 0.1 mm 6 m/s 746 mmHg 85%
    01:00 +2°C° 0.1 mm 6 m/s 746 mmHg 85%
    02:00 +2°C° 0.1 mm 6 m/s 746 mmHg 85%
    03:00 +2°C° 0.1 mm 6 m/s 746 mmHg 85%
    04:00 +2°C° 0.1 mm 6 m/s 745 mmHg 85%
    05:00 +2°C° 0.1 mm 7 m/s 746 mmHg 83%
    06:00 +2°C° 0.1 mm 7 m/s 746 mmHg 82%
    07:00 0°C° 0.1 mm 7 m/s 746 mmHg 81%
    08:00 +1°C° 0.1 mm 6 m/s 747 mmHg 81%
    09:00 +1°C° 0.1 mm 6 m/s 747 mmHg 82%
    10:00 +1°C° 0.1 mm 6 m/s 748 mmHg 82%
    11:00 +1°C° 0 mm 5 m/s 748 mmHg 81%
    12:00 +1°C° 0 mm 5 m/s 748 mmHg 79%
    13:00 +3°C° 0 mm 4 m/s 748 mmHg 78%
    14:00 +1°C° 0 mm 4 m/s 748 mmHg 80%
    15:00 +2°C° 0 mm 3 m/s 749 mmHg 81%
    16:00 +2°C° 0 mm 3 m/s 749 mmHg 83%
    17:00 +2°C° 0.1 mm 3 m/s 749 mmHg 85%
    18:00 +2°C° 0.1 mm 3 m/s 749 mmHg 87%
    19:00 +2°C° 0.1 mm 3 m/s 749 mmHg 89%
    20:00 +1°C° 0.1 mm 3 m/s 749 mmHg 90%
    21:00 +1°C° 0.1 mm 3 m/s 749 mmHg 91%
    22:00 +1°C° 0.1 mm 3 m/s 749 mmHg 92%
    23:00 +1°C° 0.1 mm 3 m/s 749 mmHg 93%
    Mostrar mais